QPF
0.00 0.00 0.00 0.00 0.00 0.00 0.00 0.00 0.00 0.00 0.00 0.01 0.02 0.03 0.04 0.02 0.01 0.00 0.00 0.00 0.00 0.00 0.00 0.00 0.00 0.00 0.00 0.00 0.00 0.00 0.00 0.00 0.00 0.00 0.00 0.00 0.00 0.00 0.00 0.00 0.00 0.00 0.00
0.00 0.00 0.00 0.00 0.00 0.00 0.00 0.00 0.00 0.00 0.01 0.02 0.03 0.02 0.01 0.00 0.00 0.00 0.00 0.00 0.00 0.00 0.00 0.00 0.00 0.00 0.00 0.00 0.00 0.00 0.00 0.00 0.00 0.00 0.00 0.00 0.00 0.00 0.00 0.00 0.00 0.00 0.00
0.00 0.00 0.00 0.00 0.00 0.01 0.01 0.00 0.00 0.01 0.01 0.02 0.02 0.01 0.00 0.00 0.00 0.00 0.00 0.00 0.00 0.00 0.00 0.00 0.00 0.00 0.00 0.00 0.00 0.00 0.00 0.00 0.00 0.00 0.00 0.00 0.00 0.00 0.00 0.00 0.00 0.00 0.00
0.00 0.00 0.00 0.00 0.00 0.01 0.00 0.00 0.00 0.00 0.00 0.01 0.01 0.01 0.01 0.00 0.00 0.00 0.00 0.00 0.00 0.00 0.00 0.00 0.00 0.00 0.00 0.00 0.00 0.00 0.00 0.00 0.00 0.00 0.00 0.00 0.00 0.00 0.00 0.00 0.00 0.00 0.00
0.00 0.00 0.00 0.00 0.00 0.01 0.00 0.00 0.00 0.00 0.01 0.02 0.02 0.01 0.01 0.00 0.00 0.00 0.00 0.00 0.00 0.00 0.00 0.00 0.00 0.00 0.00 0.00 0.00 0.00 0.00 0.00 0.00 0.00 0.00 0.00 0.00 0.00 0.00 0.00 0.00 0.00 0.00
0.00 0.00 0.00 0.00 0.00 0.00 0.00 0.00 0.00 0.01 0.01 0.01 0.01 0.01 0.00 0.00 0.00 0.00 0.00 0.00 0.00 0.00 0.00 0.00 0.00 0.00 0.00 0.00 0.00 0.00 0.00 0.00 0.00 0.00 0.00 0.00 0.00 0.00 0.00 0.00 0.00 0.00 0.00
0.00 0.00 0.00 0.00 0.00 0.00 0.00 0.00 0.00 0.01 0.01 0.01 0.00 0.00 0.00 0.00 0.00 0.00 0.00 0.00 0.00 0.00 0.00 0.00 0.00 0.00 0.00 0.00 0.00 0.00 0.00 0.00 0.00 0.00 0.00 0.00 0.00 0.00 0.00 0.00 0.00 0.00 0.00
0.00 0.00 0.00 0.00 0.00 0.00 0.00 0.00 0.00 0.00 0.00 0.00 0.00 0.00 0.00 0.00 0.00 0.00 0.00 0.00 0.00 0.00 0.00 0.00 0.00 0.00 0.00 0.00 0.00 0.00 0.00 0.00 0.00 0.00 0.00 0.00 0.00 0.00 0.00 0.00 0.00 0.00 0.00
0.00 0.00 0.00 0.00 0.00 0.00 0.00 0.00 0.00 0.00 0.00 0.00 0.00 0.00 0.00 0.00 0.00 0.00 0.00 0.00 0.00 0.00 0.00 0.00 0.00 0.00 0.00 0.00 0.00 0.00 0.00 0.00 0.00 0.00 0.00 0.00 0.00 0.00 0.00 0.00 0.00 0.00 0.00
0.00 0.00 0.00 0.00 0.00 0.00 0.00 0.00 0.00 0.00 0.00 0.00 0.00 0.00 0.00 0.00 0.00 0.00 0.00 0.00 0.00 0.00 0.00 0.00 0.00 0.00 0.00 0.00 0.00 0.00 0.00 0.00 0.00 0.00 0.00 0.00 0.00 0.00 0.00 0.00 0.00 0.00 0.00
0.00 0.00 0.00 0.00 0.00 0.00 0.00 0.00 0.00 0.00 0.00 0.00 0.00 0.00 0.00 0.00 0.00 0.00 0.00 0.00 0.00 0.00 0.00 0.00 0.00 0.00 0.00 0.00 0.00 0.00 0.00 0.00 0.00 0.00 0.00 0.00 0.00 0.00 0.00 0.00 0.00 0.00 0.00
0.00 0.00 0.00 0.00 0.00 0.00 0.00 0.00 0.00 0.00 0.00 0.00 0.00 0.00 0.00 0.00 0.00 0.00 0.00 0.00 0.00 0.00 0.00 0.00 0.00 0.00 0.00 0.00 0.00 0.00 0.00 0.00 0.00 0.00 0.00 0.00 0.00 0.00 0.00 0.00 0.00 0.00 0.00
0.00 0.00 0.00 0.00 0.00 0.00 0.00 0.00 0.00 0.00 0.00 0.00 0.00 0.00 0.00 0.00 0.00 0.00 0.00 0.00 0.00 0.00 0.00 0.00 0.00 0.00 0.00 0.00 0.00 0.00 0.00 0.00 0.00 0.00 0.00 0.00 0.00 0.00 0.00 0.00 0.00 0.00 0.00
0.00 0.00 0.00 0.00 0.00 0.00 0.00 0.00 0.00 0.00 0.00 0.00 0.00 0.00 0.00 0.00 0.00 0.00 0.00 0.00 0.00 0.00 0.00 0.00 0.00 0.00 0.00 0.00 0.00 0.00 0.00 0.00 0.00 0.00 0.00 0.00 0.00 0.00 0.00 0.00 0.00 0.00 0.00
0.00 0.00 0.00 0.00 0.00 0.00 0.00 0.00 0.00 0.00 0.00 0.00 0.00 0.00 0.00 0.00 0.00 0.00 0.00 0.00 0.00 0.00 0.00 0.00 0.00 0.00 0.00 0.00 0.00 0.00 0.00 0.00 0.00 0.00 0.00 0.00 0.00 0.00 0.00 0.00 0.00 0.00 0.00
0.00 0.00 0.00 0.00 0.00 0.00 0.00 0.00 0.00 0.00 0.00 0.00 0.00 0.00 0.00 0.00 0.00 0.00 0.00 0.00 0.00 0.00 0.00 0.00 0.00 0.00 0.00 0.00 0.00 0.00 0.00 0.00 0.00 0.00 0.00 0.00 0.00 0.00 0.00 0.00 0.00 0.00 0.00
0.00 0.00 0.00 0.00 0.00 0.00 0.00 0.00 0.00 0.00 0.00 0.00 0.00 0.00 0.00 0.00 0.00 0.00 0.00 0.00 0.00 0.00 0.00 0.00 0.00 0.00 0.00 0.00 0.00 0.00 0.00 0.00 0.00 0.00 0.00 0.00 0.00 0.00 0.00 0.00 0.00 0.00 0.00
0.00 0.00 0.00 0.00 0.00 0.00 0.00 0.00 0.00 0.00 0.00 0.00 0.00 0.00 0.00 0.00 0.00 0.00 0.00 0.00 0.00 0.00 0.00 0.00 0.00 0.00 0.00 0.00 0.00 0.00 0.00 0.00 0.00 0.00 0.00 0.00 0.00 0.00 0.00 0.00 0.00 0.00 0.00
0.00 0.00 0.00 0.00 0.00 0.00 0.00 0.00 0.00 0.00 0.00 0.00 0.00 0.00 0.00 0.00 0.00 0.00 0.00 0.00 0.00 0.00 0.00 0.00 0.00 0.00 0.00 0.00 0.00 0.00 0.00 0.00 0.00 0.00 0.00 0.00 0.00 0.00 0.00 0.00 0.00 0.00 0.00
0.00 0.00 0.00 0.00 0.00 0.00 0.00 0.00 0.00 0.00 0.00 0.00 0.00 0.00 0.00 0.00 0.00 0.00 0.00 0.00 0.00 0.00 0.00 0.00 0.00 0.00 0.00 0.00 0.00 0.00 0.00 0.00 0.00 0.00 0.00 0.00 0.00 0.00 0.00 0.00 0.00 0.00 0.00
0.00 0.00 0.00 0.00 0.00 0.00 0.00 0.00 0.00 0.00 0.00 0.00 0.00 0.00 0.00 0.00 0.00 0.00 0.00 0.00 0.00 0.00 0.00 0.00 0.00 0.00 0.00 0.00 0.00 0.00 0.00 0.00 0.00 0.00 0.00 0.00 0.00 0.00 0.00 0.00 0.00 0.00 0.00
0.00 0.00 0.00 0.00 0.00 0.00 0.00 0.00 0.00 0.00 0.00 0.00 0.00 0.00 0.00 0.00 0.00 0.00 0.00 0.00 0.00 0.00 0.00 0.00 0.00 0.00 0.00 0.00 0.00 0.00 0.00 0.00 0.00 0.00 0.00 0.00 0.00 0.00 0.00 0.00 0.00 0.00 0.00
0.00 0.00 0.00 0.00 0.00 0.00 0.00 0.00 0.00 0.00 0.00 0.00 0.00 0.00 0.00 0.00 0.00 0.00 0.00 0.00 0.00 0.00 0.00 0.00 0.00 0.00 0.00 0.00 0.00 0.00 0.00 0.00 0.00 0.00 0.00 0.00 0.00 0.00 0.00 0.00 0.00 0.00 0.00
0.00 0.00 0.00 0.00 0.00 0.00 0.00 0.00 0.00 0.00 0.00 0.00 0.00 0.00 0.00 0.00 0.00 0.00 0.00 0.00 0.00 0.00 0.00 0.00 0.00 0.00 0.00 0.00 0.00 0.00 0.00 0.00 0.00 0.00 0.00 0.00 0.00 0.00 0.00 0.00 0.00 0.00 0.00
0.00 0.00 0.00 0.00 0.00 0.00 0.00 0.00 0.00 0.00 0.00 0.00 0.00 0.00 0.00 0.00 0.00 0.00 0.00 0.00 0.00 0.00 0.00 0.00 0.00 0.00 0.00 0.00 0.00 0.00 0.00 0.00 0.00 0.00 0.00 0.00 0.00 0.00 0.00 0.00 0.00 0.00 0.00
0.00 0.00 0.00 0.00 0.00 0.00 0.00 0.00 0.00 0.00 0.00 0.00 0.00 0.00 0.00 0.00 0.00 0.00 0.00 0.00 0.00 0.00 0.00 0.00 0.00 0.00 0.00 0.00 0.00 0.00 0.00 0.00 0.00 0.00 0.00 0.00 0.00 0.00 0.00 0.00 0.00 0.00 0.00
MSLP
1007.53 1007.60 1007.40 1006.98 1006.96 1007.09 1007.31 1007.59 1008.01 1008.47 1009.12 1009.83 1010.42 1011.14 1012.13 1013.02 1013.98 1014.86 1015.71 1016.62 1017.83 1018.72 1019.20 1019.24 1020.24 1020.66 1021.09 1021.35 1022.19 1022.61 1023.02 1023.35 1024.09 1023.96 1023.95 1023.66 1023.70 1023.53 1023.22 1023.00 1022.62 1022.33 1022.05
1007.56 1007.13 1007.09 1006.92 1007.08 1007.13 1007.48 1007.87 1008.16 1008.67 1009.27 1009.90 1010.72 1011.49 1012.27 1013.01 1013.83 1014.85 1015.87 1016.84 1018.07 1019.06 1019.11 1020.07 1020.25 1021.26 1020.58 1021.04 1021.68 1022.76 1023.09 1023.24 1023.72 1023.93 1023.92 1023.67 1023.52 1023.05 1022.97 1022.84 1022.26 1021.80 1021.44
1008.04 1007.19 1007.35 1007.41 1007.33 1007.31 1007.78 1008.26 1008.61 1009.10 1009.60 1010.17 1010.81 1011.67 1012.36 1013.20 1013.85 1014.86 1015.88 1017.15 1018.15 1018.74 1019.99 1019.61 1020.55 1021.79 1020.55 1020.83 1021.62 1022.27 1022.66 1022.90 1023.29 1023.55 1023.67 1023.31 1023.15 1022.87 1022.61 1022.39 1022.07 1021.46 1020.95
1008.02 1007.29 1007.75 1007.89 1007.81 1007.67 1008.07 1008.32 1008.75 1009.38 1010.06 1010.75 1011.40 1012.22 1013.00 1013.90 1014.64 1015.53 1016.66 1017.90 1018.57 1019.28 1019.84 1020.50 1020.92 1021.04 1020.71 1021.01 1021.55 1021.78 1022.10 1022.50 1022.67 1022.96 1023.07 1023.01 1022.95 1022.31 1022.26 1022.00 1021.47 1021.01 1020.40
1008.09 1007.95 1008.53 1008.18 1008.21 1008.34 1008.64 1008.99 1009.33 1009.85 1010.66 1011.59 1012.33 1013.12 1013.84 1014.55 1015.65 1016.30 1017.39 1018.35 1019.21 1019.68 1020.25 1021.23 1020.97 1021.19 1020.71 1020.99 1021.22 1021.35 1021.82 1022.05 1022.21 1022.37 1022.63 1022.68 1022.48 1022.11 1021.77 1021.28 1021.03 1020.37 1019.65
1010.03 1010.00 1009.76 1009.24 1009.13 1009.35 1009.77 1010.39 1010.79 1011.08 1011.67 1012.29 1013.21 1013.73 1014.55 1015.21 1016.16 1017.02 1017.83 1018.81 1019.19 1020.07 1020.43 1021.23 1021.18 1020.81 1020.66 1020.95 1021.06 1021.20 1021.19 1021.46 1021.52 1021.78 1022.14 1022.11 1021.78 1021.47 1021.15 1020.92 1020.40 1019.89 1018.91
1011.21 1010.85 1010.58 1010.72 1010.50 1010.49 1010.98 1011.50 1012.09 1012.47 1012.94 1013.35 1014.04 1014.44 1015.50 1016.14 1017.01 1017.55 1018.03 1018.90 1019.72 1020.25 1020.58 1020.75 1020.76 1020.66 1020.92 1020.85 1021.21 1021.22 1021.05 1020.98 1020.82 1021.03 1021.15 1021.21 1021.08 1020.72 1020.34 1020.01 1019.59 1019.31 1018.87
1011.89 1011.76 1011.63 1011.69 1011.66 1011.86 1012.27 1012.70 1013.19 1013.76 1014.27 1014.66 1015.32 1015.76 1016.11 1017.06 1017.76 1018.05 1019.02 1019.27 1019.42 1020.44 1021.40 1020.64 1020.51 1020.51 1020.85 1020.92 1020.98 1020.97 1020.90 1020.73 1020.67 1020.53 1020.33 1020.29 1020.22 1019.86 1019.43 1019.05 1018.75 1018.53 1018.09
1012.89 1012.69 1012.67 1012.78 1012.73 1012.97 1013.37 1013.77 1014.26 1014.39 1015.39 1015.85 1016.34 1016.81 1017.25 1017.68 1018.04 1019.02 1019.09 1019.30 1020.12 1020.90 1020.67 1020.34 1020.39 1020.67 1020.94 1020.68 1020.49 1020.86 1020.68 1020.48 1020.11 1019.69 1019.47 1019.45 1019.20 1018.76 1018.50 1018.54 1018.61 1018.43 1017.64
1013.86 1013.86 1013.81 1013.81 1013.91 1014.16 1014.57 1014.53 1015.36 1015.96 1016.55 1016.89 1017.05 1017.53 1017.91 1018.66 1018.96 1018.96 1018.92 1019.69 1020.04 1020.29 1020.35 1020.33 1020.68 1020.77 1020.68 1020.33 1020.12 1020.35 1020.45 1020.20 1019.79 1019.67 1019.81 1019.57 1019.03 1018.84 1018.50 1018.56 1018.43 1018.48 1018.08
1014.66 1014.74 1014.62 1014.69 1014.97 1015.30 1015.60 1015.91 1016.55 1017.08 1017.32 1017.66 1018.15 1018.57 1019.13 1018.99 1018.47 1018.62 1018.97 1019.48 1019.94 1020.19 1020.51 1020.90 1020.89 1020.62 1020.26 1020.00 1019.82 1019.97 1019.80 1019.49 1019.65 1019.76 1019.45 1018.97 1018.73 1018.63 1018.35 1018.09 1017.98 1018.10 1017.69
1015.41 1015.53 1015.68 1015.90 1016.09 1016.47 1016.76 1017.29 1017.61 1018.06 1018.53 1018.88 1018.98 1019.39 1019.58 1019.33 1019.16 1019.24 1019.50 1019.74 1020.14 1020.57 1020.64 1020.56 1020.51 1020.33 1019.96 1019.81 1019.77 1019.70 1019.56 1019.56 1019.66 1019.46 1019.25 1019.00 1018.70 1018.37 1017.96 1017.68 1017.34 1017.02 1016.71
1016.12 1016.53 1016.80 1016.92 1017.14 1017.33 1017.66 1018.08 1018.54 1018.79 1018.91 1019.23 1019.53 1019.98 1020.16 1020.17 1020.11 1020.05 1020.08 1020.07 1020.18 1020.19 1020.25 1020.19 1020.11 1020.04 1020.06 1020.05 1019.86 1019.63 1019.58 1019.68 1019.68 1019.60 1019.26 1018.83 1018.51 1018.06 1017.60 1017.08 1016.55 1016.03 1015.43
1017.08 1017.50 1017.83 1018.06 1018.38 1018.52 1018.62 1018.85 1019.02 1019.25 1019.50 1019.74 1020.00 1020.26 1020.31 1020.31 1020.21 1020.00 1019.95 1020.01 1020.06 1020.08 1020.17 1020.29 1020.30 1020.32 1020.25 1020.09 1019.92 1019.78 1019.70 1019.59 1019.40 1019.28 1019.10 1018.63 1018.11 1017.61 1017.13 1016.75 1016.23 1015.46 1014.76
1018.06 1018.44 1018.74 1018.99 1019.21 1019.38 1019.42 1019.46 1019.55 1019.75 1019.70 1019.86 1020.14 1020.18 1020.15 1020.24 1020.10 1019.95 1020.07 1020.10 1020.06 1020.06 1020.31 1020.50 1020.62 1020.59 1020.43 1020.14 1019.89 1019.75 1019.58 1019.35 1019.26 1019.17 1018.99 1018.54 1017.86 1017.34 1016.71 1016.23 1015.76 1015.09 1014.55
1018.87 1019.22 1019.49 1019.70 1019.88 1019.96 1019.94 1020.01 1019.66 1019.72 1019.81 1020.00 1020.15 1020.24 1020.32 1020.26 1020.12 1020.14 1020.13 1020.10 1020.08 1020.04 1020.43 1020.69 1020.71 1020.63 1020.52 1020.36 1020.17 1019.93 1019.70 1019.41 1019.29 1019.11 1018.75 1018.36 1017.73 1017.09 1016.41 1015.58 1014.95 1014.44 1013.51
1019.30 1019.60 1019.90 1020.21 1020.41 1020.52 1020.54 1020.52 1020.59 1020.49 1020.31 1020.30 1020.30 1020.31 1020.28 1020.26 1020.14 1020.10 1020.12 1020.06 1020.13 1020.21 1020.51 1020.61 1020.69 1020.68 1020.63 1020.53 1020.42 1020.19 1019.81 1019.39 1019.09 1018.84 1018.46 1017.93 1017.37 1016.69 1015.99 1015.11 1014.17 1013.40 1012.37
1019.67 1019.74 1020.16 1020.47 1020.65 1020.77 1020.84 1020.87 1020.87 1020.92 1020.99 1020.95 1020.73 1020.59 1020.49 1020.35 1020.16 1020.18 1020.16 1020.29 1020.51 1020.48 1020.69 1020.74 1020.79 1020.78 1020.63 1020.48 1020.30 1020.00 1019.54 1019.15 1018.78 1018.39 1017.98 1017.43 1016.74 1016.16 1015.36 1014.39 1013.45 1012.57 1011.63
1019.74 1019.97 1020.38 1020.66 1020.81 1020.83 1020.94 1021.02 1021.15 1021.26 1021.33 1021.35 1021.24 1020.98 1020.79 1020.55 1020.42 1020.48 1020.53 1020.87 1020.96 1020.90 1020.79 1020.79 1020.71 1020.57 1020.41 1020.23 1019.99 1019.68 1019.35 1018.89 1018.29 1017.73 1017.35 1016.81 1016.07 1015.44 1014.51 1013.56 1012.58 1011.44 1010.44
1019.80 1020.00 1020.40 1020.69 1020.85 1021.06 1021.16 1021.29 1021.45 1021.54 1021.58 1021.59 1021.50 1021.35 1021.05 1020.93 1020.95 1021.03 1021.06 1021.08 1021.04 1020.95 1020.78 1020.67 1020.43 1020.26 1020.12 1019.94 1019.64 1019.29 1018.80 1018.24 1017.68 1017.25 1016.68 1016.02 1015.29 1014.68 1013.77 1012.74 1011.64 1010.48 1009.42
1019.99 1020.22 1020.38 1020.88 1021.09 1021.20 1021.31 1021.46 1021.63 1021.76 1021.86 1021.81 1021.68 1021.41 1020.89 1021.14 1021.28 1021.29 1021.28 1021.14 1020.97 1020.69 1020.48 1020.32 1020.05 1019.86 1019.66 1019.47 1019.20 1018.76 1018.25 1017.62 1017.01 1016.43 1015.85 1015.16 1014.57 1013.85 1012.90 1011.86 1010.57 1009.38 1008.47
1020.07 1020.41 1020.68 1020.97 1021.20 1021.32 1021.44 1021.68 1021.86 1021.93 1021.93 1021.88 1021.73 1021.50 1021.13 1021.31 1021.30 1021.21 1021.04 1020.85 1020.60 1020.45 1020.21 1019.99 1019.69 1019.45 1019.23 1018.96 1018.62 1018.13 1017.53 1016.91 1016.12 1015.45 1014.93 1014.36 1013.77 1012.89 1011.79 1010.66 1009.39 1008.29 1007.30
1020.21 1020.60 1020.89 1021.17 1021.36 1021.44 1021.52 1021.74 1021.83 1021.90 1021.89 1021.81 1021.69 1021.52 1021.35 1021.30 1021.21 1021.09 1020.88 1020.62 1020.45 1020.25 1019.91 1019.60 1019.26 1018.87 1018.50 1018.18 1017.86 1017.39 1016.79 1015.97 1015.26 1014.77 1014.19 1013.50 1012.73 1011.70 1010.63 1009.38 1008.05 1007.12 1006.26
1020.39 1020.81 1021.14 1021.36 1021.52 1021.67 1021.82 1021.90 1021.92 1021.88 1021.81 1021.76 1021.68 1021.52 1021.37 1021.21 1021.12 1020.92 1020.66 1020.42 1020.16 1019.96 1019.50 1019.04 1018.60 1018.22 1017.81 1017.38 1016.96 1016.48 1015.84 1015.09 1014.51 1013.90 1013.25 1012.38 1011.38 1010.11 1009.07 1008.01 1007.16 1006.27 1005.39
1020.54 1020.99 1021.24 1021.42 1021.56 1021.66 1021.78 1021.82 1021.84 1021.84 1021.80 1021.66 1021.50 1021.28 1021.15 1020.99 1020.72 1020.37 1019.99 1019.68 1019.38 1019.14 1018.73 1018.29 1017.90 1017.48 1017.15 1016.71 1016.19 1015.55 1014.88 1014.12 1013.31 1012.45 1011.63 1010.93 1010.07 1009.02 1008.01 1007.20 1006.25 1005.26 1004.45
1020.66 1021.03 1021.29 1021.45 1021.56 1021.68 1021.75 1021.79 1021.85 1021.93 1021.96 1021.72 1021.55 1021.31 1021.04 1020.73 1020.38 1020.06 1019.75 1019.34 1018.94 1018.52 1018.12 1017.62 1017.09 1016.77 1016.39 1015.85 1015.14 1014.51 1013.66 1012.80 1012.05 1011.31 1010.61 1009.79 1008.97 1008.01 1007.12 1006.28 1005.36 1004.46 1003.64
Thickness
5572 5566 5568 5573 5573 5573 5575 5578 5581 5583 5584 5584 5584 5582 5578 5574 5567 5562 5558 5553 5544 5537 5533 5531 5520 5513 5510 5505 5495 5489 5483 5478 5470 5467 5461 5457 5452 5446 5442 5437 5435 5431 5427
5544 5544 5544 5548 5547 5551 5552 5554 5560 5563 5566 5567 5567 5565 5565 5562 5558 5552 5546 5540 5532 5524 5522 5513 5508 5498 5503 5497 5489 5477 5470 5465 5460 5453 5447 5442 5436 5433 5428 5424 5420 5416 5411
5517 5520 5519 5522 5525 5528 5529 5533 5539 5544 5548 5551 5553 5553 5551 5548 5547 5542 5536 5528 5521 5516 5506 5506 5496 5477 5489 5485 5476 5467 5460 5455 5446 5440 5433 5428 5423 5418 5414 5409 5405 5402 5396
5503 5504 5500 5504 5509 5514 5515 5521 5525 5528 5531 5533 5536 5536 5534 5531 5529 5526 5519 5511 5506 5501 5494 5487 5480 5475 5474 5470 5462 5457 5451 5442 5434 5426 5420 5413 5406 5404 5398 5395 5394 5387 5383
5488 5488 5484 5492 5494 5497 5501 5506 5510 5513 5514 5515 5517 5517 5517 5516 5512 5510 5504 5497 5491 5487 5480 5469 5469 5463 5465 5457 5451 5446 5437 5429 5421 5412 5406 5397 5392 5389 5386 5382 5377 5373 5367
5462 5462 5469 5476 5481 5484 5485 5485 5488 5494 5498 5502 5501 5504 5504 5504 5502 5497 5492 5483 5479 5471 5465 5456 5454 5455 5451 5444 5439 5433 5427 5416 5407 5398 5389 5386 5381 5376 5370 5365 5360 5353 5354
5453 5452 5458 5460 5467 5471 5472 5474 5474 5479 5484 5488 5489 5492 5489 5490 5486 5482 5478 5471 5462 5456 5452 5450 5446 5443 5435 5431 5422 5417 5412 5405 5399 5391 5383 5374 5368 5361 5358 5350 5342 5335 5326
5457 5451 5452 5453 5457 5460 5460 5462 5464 5465 5468 5473 5474 5474 5476 5473 5469 5467 5460 5458 5454 5440 5433 5438 5435 5431 5421 5415 5409 5403 5395 5388 5381 5376 5369 5363 5355 5350 5342 5336 5327 5320 5314
5457 5455 5452 5451 5453 5453 5452 5453 5454 5458 5457 5460 5463 5460 5460 5460 5456 5449 5449 5448 5439 5430 5430 5429 5423 5414 5406 5404 5399 5389 5383 5374 5368 5361 5355 5347 5340 5334 5326 5318 5308 5304 5307
5454 5451 5449 5448 5448 5447 5446 5449 5448 5448 5449 5450 5452 5450 5453 5447 5445 5445 5443 5436 5430 5426 5422 5417 5409 5402 5396 5392 5387 5378 5368 5360 5353 5343 5331 5325 5321 5313 5306 5301 5297 5291 5288
5456 5452 5450 5449 5448 5447 5446 5447 5444 5443 5445 5443 5441 5439 5435 5438 5442 5441 5437 5429 5422 5417 5408 5397 5392 5389 5385 5380 5373 5361 5353 5347 5334 5321 5313 5308 5302 5297 5295 5293 5289 5281 5278
5456 5452 5450 5448 5447 5444 5442 5439 5437 5437 5436 5432 5432 5430 5428 5430 5432 5430 5424 5418 5409 5399 5394 5389 5383 5378 5373 5364 5354 5345 5334 5321 5308 5302 5297 5294 5291 5290 5290 5287 5282 5277 5272
5457 5453 5449 5446 5443 5441 5438 5435 5432 5430 5429 5428 5427 5421 5417 5416 5413 5412 5408 5404 5400 5395 5389 5382 5374 5366 5355 5341 5329 5318 5307 5295 5289 5284 5285 5286 5286 5285 5284 5282 5278 5275 5270
5452 5445 5442 5440 5436 5434 5432 5429 5427 5423 5421 5420 5417 5412 5409 5408 5406 5404 5401 5396 5391 5385 5376 5365 5355 5341 5328 5315 5304 5295 5286 5281 5281 5281 5280 5281 5281 5279 5279 5277 5274 5273 5270
5443 5439 5436 5433 5429 5427 5426 5424 5422 5418 5417 5413 5410 5408 5405 5401 5401 5399 5393 5386 5378 5370 5358 5344 5331 5318 5307 5298 5289 5282 5280 5281 5280 5278 5276 5275 5276 5275 5274 5272 5269 5267 5263
5439 5435 5430 5427 5423 5421 5419 5417 5420 5417 5414 5410 5406 5402 5398 5395 5392 5386 5380 5373 5365 5356 5341 5326 5312 5302 5292 5285 5280 5279 5278 5278 5276 5274 5272 5270 5269 5269 5269 5270 5269 5265 5265
5433 5429 5426 5421 5417 5413 5411 5409 5406 5404 5405 5402 5399 5396 5392 5387 5383 5377 5371 5364 5353 5341 5325 5311 5300 5291 5284 5280 5276 5274 5275 5275 5271 5269 5267 5266 5265 5265 5267 5267 5267 5267 5268
5429 5427 5420 5415 5412 5409 5406 5402 5399 5397 5393 5389 5389 5386 5383 5379 5375 5368 5360 5348 5335 5323 5311 5303 5293 5287 5283 5279 5276 5274 5273 5271 5268 5266 5264 5264 5265 5264 5263 5266 5267 5267 5267
5425 5421 5416 5411 5408 5405 5402 5398 5394 5390 5385 5381 5378 5376 5372 5368 5363 5354 5344 5330 5319 5309 5303 5295 5290 5286 5282 5279 5275 5272 5269 5267 5267 5266 5264 5263 5263 5263 5264 5266 5268 5271 5272
5422 5419 5413 5408 5404 5399 5396 5392 5387 5382 5377 5373 5369 5364 5361 5356 5348 5339 5330 5319 5308 5301 5296 5291 5289 5285 5281 5278 5274 5271 5269 5268 5267 5265 5264 5264 5264 5263 5264 5266 5269 5272 5272
5417 5413 5410 5402 5397 5393 5389 5384 5379 5374 5369 5364 5359 5356 5356 5345 5336 5328 5318 5308 5300 5297 5293 5290 5288 5284 5280 5276 5273 5270 5269 5268 5267 5265 5264 5264 5263 5263 5264 5266 5271 5273 5273
5412 5406 5401 5396 5391 5387 5382 5376 5371 5366 5361 5356 5352 5348 5345 5336 5328 5319 5310 5302 5298 5294 5291 5288 5286 5283 5279 5275 5273 5270 5268 5267 5268 5268 5265 5264 5262 5264 5267 5270 5274 5277 5279
5405 5400 5394 5389 5384 5381 5374 5369 5364 5359 5355 5350 5345 5340 5334 5327 5319 5311 5302 5296 5292 5290 5289 5287 5285 5283 5281 5278 5275 5272 5270 5269 5269 5267 5266 5264 5264 5267 5269 5274 5282 5284 5282
5398 5392 5387 5382 5377 5372 5366 5361 5357 5354 5350 5344 5337 5332 5325 5319 5310 5302 5294 5289 5288 5286 5286 5286 5285 5283 5281 5279 5276 5274 5272 5271 5269 5268 5267 5268 5270 5274 5278 5282 5283 5283 5282
5391 5385 5381 5376 5371 5366 5360 5355 5350 5346 5341 5337 5332 5326 5319 5312 5304 5296 5292 5290 5289 5287 5287 5286 5284 5283 5281 5279 5277 5276 5274 5272 5272 5272 5273 5273 5274 5277 5279 5281 5284 5286 5284
5384 5379 5373 5368 5363 5358 5353 5348 5344 5339 5334 5328 5323 5317 5311 5304 5297 5290 5287 5286 5286 5286 5285 5284 5283 5282 5280 5278 5278 5276 5275 5275 5275 5274 5273 5275 5276 5279 5280 5282 5285 5286 5286